Home > Weather > Siegen > Past weeks

Flag for Germany Past Weather in Siegen, North Rhine-Westphalia, Germany — Yesterday and Last 2 Weeks

Now
68 °F

Broken clouds.


Feels Like: 68 °F
Forecast: 60 / 80 °F
Wind: 8 mph from East

Location: Hessen

Current Time: Jul 23, 2016 at 7:04:29 PM

Latest Report: Jul 23, 2016 at 6:20 PM


Visibility: N/A

Pressure: 30.09 "Hg

Humidity: 83%

Dew Point: 63 °F

Location of SiegenLocation

Past Weather in Siegen — Graph

°F

Siegen Temperature Yesterday

Maximum temperature yesterday: 79 °F (at 1:20 PM)
Minimum temperature yesterday: 66 °F (at 7:50 AM)
Average temperature yesterday: 71 °F

High & Low Weather Summary for the Past Weeks

 TemperatureHumidityPressure
High84 °F (Jul 20, 2:50 PM)100% (Jul 9, 7:50 AM)30.30 "Hg (Jul 9, 7:50 AM)
Low48 °F (Jul 14, 7:50 AM)40% (Jul 20, 3:50 PM)29.89 "Hg (Jul 10, 7:20 PM)
Average66 °F71%30.10 "Hg
* Reported Jul 8 5:20 PM — Jul 23 5:50 PM, Siegen, Weather by CustomWeather, © 2016

Note: Actual official high and low records may vary slightly from our data, if they occured in-between our weather recording intervals... More about our weather records

Advertising

Siegen Weather History for the Previous 24 Hours

Scroll right to see more
 ConditionsComfort  
Time TempWeatherWind HumidityBarometerVisibility
5:50 PM
Sat, Jul 23
68 °FBroken clouds.10 mph83%30.09 "HgN/A
5:20 PM70 °FBroken clouds.7 mph83%30.09 "HgN/A
4:50 PM66 °FBroken clouds.8 mph94%30.12 "HgN/A
3:50 PM68 °FBroken clouds.8 mph83%30.12 "HgN/A
3:20 PM68 °FBroken clouds.7 mph83%30.12 "HgN/A
2:50 PM66 °FBroken clouds.8 mph94%30.12 "HgN/A
2:20 PM66 °FBroken clouds.8 mph94%30.12 "HgN/A
1:50 PM64 °FBroken clouds.7 mph100%30.12 "Hg4 mi
1:20 PM64 °FBroken clouds.5 mph100%30.12 "Hg4 mi
12:50 PM64 °FBroken clouds.3 mph100%30.12 "HgN/A
12:20 PM64 °FBroken clouds.5 mph100%30.12 "Hg2 mi
11:50 AM64 °FLight rain. Broken clouds.3 mph100%30.12 "Hg2 mi
11:20 AM63 °FPartly sunny.3 mph100%30.12 "Hg2 mi
10:50 AM64 °FFog.2 mph100%30.09 "Hg1 mi
10:20 AM64 °FBroken clouds.1 mph100%30.09 "HgN/A
9:50 AM63 °FLight rain. Broken clouds.No wind100%30.09 "Hg3 mi
9:20 AM63 °FLight rain. Broken clouds.5 mph100%30.09 "Hg2 mi
8:50 AM63 °FBroken clouds.5 mph100%30.07 "Hg4 mi
8:20 AM63 °FPartly sunny.7 mph100%30.07 "HgN/A
7:50 AM63 °FPartly sunny.7 mph100%30.07 "HgN/A
8:50 PM
Fri, Jul 22
66 °FSunny.9 mph78%30.07 "Hg10 mi
8:20 PM68 °FSunny.8 mph73%30.07 "Hg10 mi
7:50 PM68 °FSunny.9 mph78%30.04 "Hg10 mi
7:20 PM68 °FSunny.7 mph78%30.04 "Hg10 mi
Weather by CustomWeather, © 2016

See weather overviewHow to use our weather pages